{"data":{"norad_id":48076,"epoch":"2026-05-24T23:51:22.718016Z","epoch_age_seconds":71467,"freshness":"FRESH","line1":"1 48076U 21025AL  26144.99401294 -.00000195  00000+0 -56849-3 0  9991","line2":"2 48076  87.8951 324.8323 0002011  90.6131 269.5229 13.13468606250600","mean_motion":13.13468606,"eccentricity":0.0002011,"inclination_deg":87.8951,"raan_deg":324.8323,"arg_perigee_deg":90.6131,"mean_anomaly_deg":269.5229,"bstar":-0.00056849,"rev_number":25060,"period_min":109.63337786849,"perigee_km":1208.2448404016,"apogee_km":1211.2966969062,"semimajor_km":7587.9077686539,"source":"CELESTRAK","updated_at":"2026-05-25T13:38:22.395123Z"}}